This demonstration page uses our WeatherBlox Daily Observations layout. Learn more.

Left ArrowRight Arrow

Hourly Observations for March 5, 2022

Temp ( °F °C ) Dew Point ( °F °C ) Humidity (%) Winds ( mph kmh ) Pressure ( in mb ) Visibility ( mi km ) Precip ( " mm )
12:59 am 00:59 Mostly Cloudy 43 6.1 29 -1.7 58 58 ESE 3 6 30.47 1032 10 16 0.00 0.00
1:59 am 01:59 Mostly Cloudy 43 6.1 31 -0.6 63 63 VRB 3 6 30.46 1032 10 16 0.00 0.00
2:59 am 02:59 Mostly Cloudy 45 7.2 32 0 61 61 Calm 30.45 1031 10 16 0.00 0.00
3:59 am 03:59 Cloudy 46 7.8 32 0 58 58 ESE 3 6 30.45 1031 10 16 0.00 0.00
4:59 am 04:59 Cloudy 46 7.8 32 0 58 58 ESE 6 9 30.45 1031 10 16 0.00 0.00
5:59 am 05:59 Cloudy 47 8.3 32 0 56 56 E 5 7 30.47 1032 10 16 0.00 0.00
6:59 am 06:59 Cloudy 47 8.3 34 1.1 61 61 ESE 7 11 30.47 1032 10 16 0.00 0.00
7:59 am 07:59 Cloudy 49 9.4 35 1.7 59 59 E 7 11 30.49 1032 10 16 0.00 0.00
8:59 am 08:59 Cloudy 51 10.6 36 2.2 56 56 ESE 8 13 30.49 1033 10 16 0.00 0.00
9:59 am 09:59 Cloudy 54 12.2 37 2.8 53 53 ESE 8 13 30.50 1033 10 16 0.00 0.00
10:59 am 10:59 Cloudy 56 13.3 39 3.9 53 53 ESE 5 7 30.50 1033 10 16 0.00 0.00
11:59 am 11:59 Cloudy 58 14.4 39 3.9 50 50 ESE 7 11 30.47 1032 10 16 0.00 0.00
1:59 pm 13:59 Cloudy 62 16.7 43 6.1 50 50 VRB 5 7 30.42 1030 10 16 0.00 0.00
2:21 pm 14:21 Cloudy 60 15.6 42 5.6 52 52 ENE 8 13 30.42 1030 10 16 0.00 0.00
2:46 pm 14:46 Cloudy 62 16.7 44 6.7 52 52 E 7 11 30.41 1030 10 16 0.00 0.00
2:59 pm 14:59 Mostly Cloudy 64 17.8 47 8.3 54 54 SSE 8 13 30.40 1029 10 16 0.00 0.00
3:59 pm 15:59 Mostly Cloudy 63 17.2 48 8.9 58 58 SSE 9 15 30.37 1029 10 16 0.00 0.00
4:59 pm 16:59 Mostly Cloudy 62 16.7 50 10 65 65 S 6 9 30.37 1029 10 16 0.00 0.00
5:59 pm 17:59 Mostly Cloudy 61 16.1 50 10 67 67 SSE 7 11 30.36 1028 8 13 0.00 0.00
6:59 pm 18:59 Mostly Clear 59 15 49 9.4 69 69 SSE 6 9 30.36 1028 10 16 0.00 0.00
7:59 pm 19:59 Clear 57 13.9 49 9.4 74 74 SSE 5 7 30.35 1028 10 16 0.00 0.00
8:59 pm 20:59 Mostly Clear 57 13.9 50 10 78 78 S 8 13 30.33 1027 10 16 0.00 0.00
9:59 pm 21:59 Partly Cloudy 61 16.1 54 12.2 78 78 S 14 22 30.31 1027 10 16 0.00 0.00
10:59 pm 22:59 Mostly Cloudy 62 16.7 56 13.3 80 80 SSW 12 19 30.31 1026 9 14 0.00 0.00
11:59 pm 23:59 Mostly Cloudy 64 17.8 58 14.4 81 81 SSW 13 20 30.29 1026 9 14 0.00 0.00

Powered by AerisWeather